Location: Newark
(35.9031°N, 139.7175°E)
Time: 13:29:56
(UTC+00:00)

Transit 2A - Pass Details

Date: 03 June 2020
Orbit: 592 x 967 km, 66.7° (Epoch: 06 July)

Event Time Altitude Azimuth Distance (km) Brightness Sun altitude
Rises 12:21:36 0° 332° (NNW) 3,589 10.9 -23.2°
Reaches altitude 10° 12:24:06 10° 333° (NNW) 2,671 9.9 -23.5°
Maximum altitude 12:30:27 89° 247° (WSW) 971 6.4 -24.2°
Enters shadow 12:32:02 54° 156° (SSE) 1,155 6.5 -24.4°
